Regional Weather Roundup
Issued by NWS

Home | Current Version | Previous Version | Graphics & Text | Print | Product List | Glossary On
Versions: 1 2 3 4 5 6 7 8 9 10 11 12 13 14 15 16 17 18 19 20 21 22 23 24 25 26 27 28 29 30 31 32 33 34 35 36 37 38 39 40 41 42 43 44 45 46 47 48 49 50
000
ASUS45 KCYS 302010
RWRWY

WYOMING REGIONAL WEATHER ROUNDUP
NATIONAL WEATHER SERVICE CHEYENNE WY
200 PM MDT TUE SEP 30 2014

NOTE:  "FAIR" INDICATES FEW OR NO CLOUDS BELOW 12,000 FEET
WITH NO SIGNIFICANT WEATHER AND/OR OBSTRUCTIONS TO VISIBILITY.

WYZ001-302100-
YELLOWSTONE NATIONAL PARK

CITY           SKY/WX    TMP DP  RH WIND       PRES   REMARKS
LK YELLOWSTONE   N/A     41  37  86 W5        29.93S
W YELLOWSTONE  NOT AVBL

$$
WYZ002>013-054>058-071-098>099-302100-
NORTHERN WYOMING

CITY           SKY/WX    TMP DP  RH WIND       PRES   REMARKS
JACKSON        PTSUNNY   50  43  76 S10       29.90F
CODY           CLOUDY    55  43  62 SW9       29.76S
GREYBULL       CLOUDY    61  44  53 SE6       29.72F
WORLAND        CLOUDY    59  43  55 CALM      29.73F
SHERIDAN       CLOUDY    62  39  42 NW25G33   29.66F
BUFFALO        CLOUDY    60  42  51 N15G31    29.71S
GILLETTE       CLOUDY    56  44  64 NW18      29.66S
HULETT         LGT RAIN  52  50  93 W8        29.64
NEWCASTLE      MOCLDY    54  46  76 NW20G28   29.67

$$
WYZ014>020-022>026-101>103-302100-
CENTRAL WYOMING

CITY           SKY/WX    TMP DP  RH WIND       PRES   REMARKS
BIG PINEY      CLOUDY    51  36  56 CALM      29.93F
PINEDALE       LGT RAIN  45  39  81 NW9       29.93F
DUBOIS         CLOUDY    50  36  57 W15G24    29.86S
LANDER         CLOUDY    60  35  39 E5        29.79F
RIVERTON       PTSUNNY   61  36  39 SW13      29.79F
CASPER         PTSUNNY   63  31  30 W18G30    29.75F
DOUGLAS        MOSUNNY   64  36  35 W20G29    29.72F

$$
WYZ021-027>030-104>119-302100-
SOUTHERN WYOMING

CITY           SKY/WX    TMP DP  RH WIND       PRES   REMARKS
EVANSTON       CLOUDY    46  39  76 W15       30.02R
KEMMERER       CLOUDY    46  37  71 W24G31    29.97F
FORT BRIDGER   MOCLDY    51  43  74 W26G32    30.02S
ROCK SPRINGS   CLOUDY    48  43  82 W22       29.94F
DIXON          LGT RAIN  48  42  81 W13       29.99F
RAWLINS        CLOUDY    50  37  61 W22G32    29.89F
SARATOGA       CLOUDY    50  37  62 SW22G30   29.94S
LARAMIE        CLOUDY    49  35  58 W21G32    29.89S
CHEYENNE       PTSUNNY   59  33  37 W20G30    29.83F
TORRINGTON     MOSUNNY   67  39  35 W20G30    29.71F
PINE BLUFFS    FAIR      66  34  30 W21G28    29.79F

$$



USA.gov is the U.S. government's official web portal to all federal, state and local government web resources and services.